M I D A S
Marine Information and Data Acquisition System
Tripno 1108 of the Zeeleeuw from 2006-06-02 06:35:58 to 2006-06-02 14:54:49
Back to CruiseResearch ActivitiesStationsMapUnderway DataData graphs

EquipmentUnitsComments
TimeDGPSUTC
LatitudeDGPSDM.mWGS84
LongitudeDGPSDM.mWGS84
SpeedMeteo Stationm/sRelative wind speed
DirectionMeteo StationdegRelative wind direction
TemperatureMeteo Stationdeg CelciusAir temperature
PressureMeteo StationPaAtmospheric pressure
HumidityMeteo Station%Relative humidity
Missing or incorrect values are displayed as -999
Metereological data collected by the RV Zeeleeuw from 2006-06-02 06:32:24 to 2006-06-02 15:07:40
Time Latitude Longitude Speed Direction Temperature Pressure Humidity
2006-06-02 06:33 51°13.609 2°56.051 -999 163 11 103000 67
2006-06-02 06:34 51°13.626 2°55.96 -999 156 11 103000 67
2006-06-02 06:35 51°13.669 2°55.86 -999 209 11 103000 67
2006-06-02 06:36 51°13.718 2°55.776 -999 212 11 103000 68
2006-06-02 06:37 51°13.732 2°55.748 -999 262 11 103000 68
2006-06-02 06:38 51°13.736 2°55.733 -999 294 11.1 103010 67
2006-06-02 06:39 51°13.724 2°55.7 -999 321 11.1 103010 66
2006-06-02 06:40 51°13.76 2°55.692 -999 16 11.2 103000 66
2006-06-02 06:41 51°13.855 2°55.625 -999 14 11.1 103000 65
2006-06-02 06:42 51°13.973 2°55.539 -999 33 11.1 103000 65
2006-06-02 06:43 51°14.091 2°55.457 -999 25 11 103000 66
2006-06-02 06:44 51°14.204 2°55.358 -999 42 10.9 103000 66
2006-06-02 06:45 51°14.3 2°55.196 -999 23 10.9 103000 67
2006-06-02 06:46 51°14.411 2°55.019 -999 34 10.8 103000 67
2006-06-02 06:47 51°14.566 2°54.898 -999 21 10.8 102990 67
2006-06-02 06:48 51°14.752 2°54.832 -999 20 10.8 102990 67
2006-06-02 06:49 51°14.954 2°54.747 -999 20 10.8 102990 66
2006-06-02 06:50 51°15.157 2°54.663 -999 19 10.8 102990 66
2006-06-02 06:51 51°15.366 2°54.579 -999 28 10.8 102990 66
2006-06-02 06:52 51°15.572 2°54.502 -999 20 10.7 102990 65
2006-06-02 06:53 51°15.788 2°54.437 -999 19 10.8 103000 66
2006-06-02 06:54 51°15.998 2°54.372 -999 16 10.7 103000 65
2006-06-02 06:55 51°16.169 2°54.32 -999 25 10.8 103010 65
2006-06-02 06:56 51°16.248 2°54.302 -999 52 10.8 103020 65
2006-06-02 06:57 51°16.247 2°54.317 -999 56 10.8 103020 65
2006-06-02 06:58 51°16.245 2°54.328 -999 71 10.7 103020 66
2006-06-02 06:59 51°16.244 2°54.338 -999 56 10.7 103020 66
2006-06-02 07:00 51°16.243 2°54.347 -999 56 10.7 103020 66
2006-06-02 07:01 51°16.243 2°54.355 -999 69 10.7 103020 67
2006-06-02 07:02 51°16.244 2°54.363 -999 88 10.7 103020 66
2006-06-02 07:03 51°16.245 2°54.371 -999 108 10.7 103020 66
2006-06-02 07:04 51°16.247 2°54.379 -999 118 10.7 103020 66
2006-06-02 07:05 51°16.263 2°54.34 -999 68 10.8 103020 66
2006-06-02 07:06 51°16.347 2°54.178 -999 36 10.8 103020 66
2006-06-02 07:07 51°16.489 2°53.976 -999 23 10.7 103020 66
2006-06-02 07:08 51°16.651 2°53.757 -999 26 10.7 103020 66
2006-06-02 07:09 51°16.818 2°53.533 -999 34 10.7 103020 67
2006-06-02 07:10 51°16.982 2°53.309 -999 20 10.7 103020 67
2006-06-02 07:11 51°17.15 2°53.087 -999 30 10.7 103020 66
2006-06-02 07:12 51°17.304 2°52.843 -999 19 10.7 103010 66
2006-06-02 07:13 51°17.452 2°52.586 -999 27 10.7 103020 66
2006-06-02 07:14 51°17.601 2°52.338 -999 20 10.7 103030 66
2006-06-02 07:15 51°17.748 2°52.093 -999 21 10.7 103020 66
2006-06-02 07:16 51°17.894 2°51.842 -999 16 10.7 103020 66
2006-06-02 07:17 51°18.044 2°51.598 -999 23 10.7 103040 65
2006-06-02 07:18 51°18.196 2°51.358 -999 28 10.7 103020 65
2006-06-02 07:19 51°18.337 2°51.159 -999 29 10.7 103030 65
2006-06-02 07:20 51°18.422 2°51.04 -999 43 10.7 103030 65
2006-06-02 07:21 51°18.468 2°50.993 -999 55 10.6 103030 66
2006-06-02 07:22 51°18.473 2°50.987 -999 59 10.6 103030 66
2006-06-02 07:23 51°18.476 2°50.98 -999 69 10.6 103030 66
2006-06-02 07:24 51°18.48 2°50.976 -999 73 10.7 103030 66
2006-06-02 07:25 51°18.484 2°50.97 -999 75 10.8 103030 66
2006-06-02 07:26 51°18.487 2°50.966 -999 74 10.7 103050 66
2006-06-02 07:27 51°18.489 2°50.959 -999 84 10.8 103040 65
2006-06-02 07:28 51°18.493 2°50.954 -999 115 10.8 103040 66
2006-06-02 07:29 51°18.495 2°50.947 -999 121 10.9 103050 66
2006-06-02 07:30 51°18.499 2°50.937 -999 111 10.9 103040 65
2006-06-02 07:31 51°18.529 2°50.891 -999 38 11 103050 65
2006-06-02 07:32 51°18.641 2°50.921 -999 360 10.9 103040 66
2006-06-02 07:33 51°18.736 2°51.18 -999 1 10.8 103040 66
2006-06-02 07:34 51°18.799 2°51.498 -999 354 10.9 103050 66
2006-06-02 07:35 51°18.852 2°51.825 -999 349 11 103040 65
2006-06-02 07:36 51°18.912 2°52.148 -999 352 11 103050 65
2006-06-02 07:37 51°18.973 2°52.467 -999 1 11.1 103050 65
2006-06-02 07:38 51°19.032 2°52.785 -999 350 11.1 103060 64
2006-06-02 07:39 51°19.1 2°53.099 -999 2 11.1 103050 65
2006-06-02 07:40 51°19.164 2°53.413 -999 350 11 103050 64
2006-06-02 07:41 51°19.227 2°53.729 -999 351 11 103050 65
2006-06-02 07:42 51°19.292 2°54.047 -999 355 10.9 103050 64
2006-06-02 07:43 51°19.362 2°54.369 -999 357 10.9 103050 65
2006-06-02 07:44 51°19.431 2°54.691 -999 351 10.9 103050 64
2006-06-02 07:45 51°19.499 2°55.013 -999 359 10.8 103050 65
2006-06-02 07:46 51°19.563 2°55.332 -999 1 10.8 103050 65
2006-06-02 07:47 51°19.629 2°55.651 -999 351 10.8 103040 65
2006-06-02 07:48 51°19.695 2°55.97 -999 358 10.8 103040 66
2006-06-02 07:49 51°19.759 2°56.289 -999 -999 10.8 103040 65
2006-06-02 07:50 51°19.823 2°56.604 -999 354 10.8 103040 65
2006-06-02 07:51 51°19.883 2°56.92 -999 356 10.7 103040 66
2006-06-02 07:52 51°19.948 2°57.233 -999 350 10.7 103030 65
2006-06-02 07:53 51°20.009 2°57.546 -999 351 10.7 103040 65
2006-06-02 07:54 51°20.07 2°57.861 -999 2 10.7 103040 65
2006-06-02 07:55 51°20.131 2°58.174 -999 353 10.7 103040 65
2006-06-02 07:56 51°20.195 2°58.481 -999 353 10.8 103050 66
2006-06-02 07:57 51°20.258 2°58.79 -999 357 10.8 103040 65
2006-06-02 07:58 51°20.32 2°59.095 -999 352 10.9 103050 65
2006-06-02 07:59 51°20.381 2°59.412 -999 350 10.9 103040 65
2006-06-02 08:00 51°20.442 2°59.719 -999 347 11 103050 65
2006-06-02 08:01 51°20.502 3°0.027 -999 351 11 103050 65
2006-06-02 08:02 51°20.569 3°0.342 -999 351 11 103040 65
2006-06-02 08:03 51°20.641 3°0.655 -999 353 11 103050 66
2006-06-02 08:04 51°20.708 3°0.966 -999 7 10.9 103050 66
2006-06-02 08:05 51°20.777 3°1.275 -999 4 10.9 103050 66
2006-06-02 08:06 51°20.843 3°1.583 -999 4 10.8 103050 66
2006-06-02 08:07 51°20.91 3°1.885 -999 7 10.8 103060 65
2006-06-02 08:08 51°20.984 3°2.194 -999 11 10.8 103060 65
2006-06-02 08:09 51°21.058 3°2.492 -999 352 10.8 103060 66
2006-06-02 08:10 51°21.13 3°2.804 -999 357 10.8 103060 65
2006-06-02 08:11 51°21.193 3°3.109 -999 353 10.8 103050 66
2006-06-02 08:12 51°21.262 3°3.422 -999 349 10.9 103050 66
2006-06-02 08:13 51°21.328 3°3.726 -999 355 10.9 103060 65
2006-06-02 08:14 51°21.39 3°4.04 -999 356 10.9 103050 65
2006-06-02 08:15 51°21.453 3°4.342 -999 357 10.9 103060 65
2006-06-02 08:16 51°21.521 3°4.653 -999 360 10.8 103060 65
2006-06-02 08:17 51°21.583 3°4.96 -999 360 10.9 103060 66
2006-06-02 08:18 51°21.647 3°5.259 -999 355 10.9 103060 66
2006-06-02 08:19 51°21.706 3°5.57 -999 349 10.9 103060 66
2006-06-02 08:20 51°21.746 3°5.881 -999 353 10.9 103060 66
2006-06-02 08:21 51°21.789 3°6.194 -999 357 11 103060 66
2006-06-02 08:22 51°21.826 3°6.501 -999 359 11 103060 66
2006-06-02 08:23 51°21.867 3°6.816 -999 358 10.9 103070 65
2006-06-02 08:24 51°21.902 3°7.128 -999 1 10.8 103080 65
2006-06-02 08:25 51°21.936 3°7.433 -999 359 10.8 103070 65
2006-06-02 08:26 51°21.972 3°7.747 -999 356 10.8 103070 65
2006-06-02 08:27 51°21.999 3°8.059 -999 354 10.8 103070 65
2006-06-02 08:28 51°22.032 3°8.366 -999 352 10.8 103070 65
2006-06-02 08:29 51°22.06 3°8.667 -999 357 10.8 103070 65
2006-06-02 08:30 51°22.1 3°8.963 -999 357 10.8 103070 65
2006-06-02 08:31 51°22.14 3°9.259 -999 357 10.8 103070 65
2006-06-02 08:32 51°22.173 3°9.557 -999 352 10.8 103080 65
2006-06-02 08:33 51°22.199 3°9.852 -999 355 10.8 103060 66
2006-06-02 08:34 51°22.228 3°10.149 -999 357 10.8 103070 65
2006-06-02 08:35 51°22.258 3°10.449 -999 354 10.8 103070 65
2006-06-02 08:36 51°22.291 3°10.749 -999 353 10.8 103070 66
2006-06-02 08:37 51°22.318 3°11.052 -999 356 10.8 103060 66
2006-06-02 08:38 51°22.348 3°11.35 -999 358 10.8 103070 66
2006-06-02 08:39 51°22.38 3°11.647 -999 356 10.8 103070 65
2006-06-02 08:40 51°22.413 3°11.945 -999 350 10.8 103060 65
2006-06-02 08:41 51°22.445 3°12.24 -999 358 10.8 103070 65
2006-06-02 08:42 51°22.474 3°12.536 -999 350 10.8 103070 65
2006-06-02 08:43 51°22.496 3°12.835 -999 347 10.8 103070 65
2006-06-02 08:44 51°22.531 3°13.035 -999 343 10.8 103080 65
2006-06-02 08:45 51°22.558 3°13.135 -999 328 10.8 103080 65
2006-06-02 08:46 51°22.583 3°13.163 -999 302 10.9 103090 65
2006-06-02 08:47 51°22.59 3°13.136 -999 316 10.9 103090 65
2006-06-02 08:48 51°22.597 3°13.102 -999 326 10.9 103090 65
2006-06-02 08:49 51°22.603 3°13.064 -999 358 11 103090 66
2006-06-02 08:50 51°22.608 3°13.023 -999 319 11.1 103090 66
2006-06-02 08:51 51°22.611 3°12.982 -999 319 11.1 103090 65
2006-06-02 08:52 51°22.613 3°12.942 -999 349 11.1 103090 65
2006-06-02 08:53 51°22.615 3°12.902 -999 341 11.2 103090 64
2006-06-02 08:54 51°22.625 3°12.867 -999 339 11.2 103090 64
2006-06-02 08:55 51°22.697 3°12.915 -999 2 11.1 103090 64
2006-06-02 08:56 51°22.811 3°13.061 -999 -999 11.1 103080 64
2006-06-02 08:57 51°22.944 3°13.258 -999 351 11 103080 64
2006-06-02 08:58 51°23.075 3°13.467 -999 348 10.9 103070 65
2006-06-02 08:59 51°23.21 3°13.685 -999 351 10.9 103080 64
2006-06-02 09:00 51°23.339 3°13.905 -999 353 10.9 103080 65
2006-06-02 09:01 51°23.469 3°14.124 -999 2 10.9 103080 65
2006-06-02 09:02 51°23.602 3°14.338 -999 -999 10.8 103080 65
2006-06-02 09:03 51°23.733 3°14.548 -999 358 10.8 103090 65
2006-06-02 09:04 51°23.869 3°14.754 -999 4 10.8 103080 65
2006-06-02 09:05 51°23.973 3°14.915 -999 348 10.8 103090 65
2006-06-02 09:06 51°24.027 3°15.04 -999 342 10.8 103090 66
2006-06-02 09:07 51°24.062 3°15.153 -999 333 10.9 103090 66
2006-06-02 09:08 51°24.094 3°15.257 -999 327 10.9 103090 66
2006-06-02 09:09 51°24.111 3°15.374 -999 330 10.9 103100 65
2006-06-02 09:10 51°24.128 3°15.487 -999 337 10.9 103100 65
2006-06-02 09:11 51°24.152 3°15.598 -999 340 10.9 103100 66
2006-06-02 09:12 51°24.178 3°15.711 -999 346 10.9 103100 66
2006-06-02 09:13 51°24.233 3°15.862 -999 348 10.9 103100 65
2006-06-02 09:14 51°24.309 3°16.067 -999 342 11 103090 66
2006-06-02 09:15 51°24.436 3°16.282 -999 348 11 103090 65
2006-06-02 09:16 51°24.605 3°16.449 -999 357 11 103090 65
2006-06-02 09:17 51°24.774 3°16.618 -999 355 11 103080 66
2006-06-02 09:18 51°24.947 3°16.782 -999 351 10.9 103090 65
2006-06-02 09:19 51°25.118 3°16.952 -999 346 10.9 103090 65
2006-06-02 09:20 51°25.285 3°17.125 -999 352 10.9 103090 66
2006-06-02 09:21 51°25.446 3°17.305 -999 353 10.9 103090 66
2006-06-02 09:22 51°25.607 3°17.487 -999 353 10.9 103090 66
2006-06-02 09:23 51°25.752 3°17.614 -999 344 10.9 103090 66
2006-06-02 09:24 51°25.842 3°17.667 -999 324 10.9 103100 66
2006-06-02 09:25 51°25.885 3°17.736 -999 321 11 103100 66
2006-06-02 09:26 51°25.902 3°17.727 -999 42 10.9 103100 66
2006-06-02 09:27 51°25.901 3°17.686 -999 302 11 103100 66
2006-06-02 09:28 51°25.901 3°17.644 -999 337 11.2 103100 66
2006-06-02 09:29 51°25.9 3°17.605 -999 333 11.2 103100 66
2006-06-02 09:30 51°25.899 3°17.564 -999 335 11.2 103110 65
2006-06-02 09:31 51°25.897 3°17.525 -999 324 11.2 103100 64
2006-06-02 09:32 51°25.894 3°17.484 -999 228 11.2 103110 64
2006-06-02 09:33 51°25.891 3°17.443 -999 308 11.2 103110 64
2006-06-02 09:34 51°25.906 3°17.411 -999 353 11.3 103110 65
2006-06-02 09:35 51°25.973 3°17.285 -999 23 11.3 103110 64
2006-06-02 09:36 51°25.947 3°17.013 -999 26 11.2 103110 64
2006-06-02 09:37 51°25.905 3°16.677 -999 24 11 103100 65
2006-06-02 09:38 51°25.854 3°16.323 -999 17 10.9 103110 65
2006-06-02 09:39 51°25.811 3°15.968 -999 21 10.9 103120 65
2006-06-02 09:40 51°25.77 3°15.603 -999 18 10.9 103120 65
2006-06-02 09:41 51°25.716 3°15.239 -999 33 10.9 103110 66
2006-06-02 09:42 51°25.672 3°14.884 -999 25 10.8 103120 66
2006-06-02 09:43 51°25.629 3°14.515 -999 32 10.8 103120 66
2006-06-02 09:44 51°25.581 3°14.158 -999 24 10.8 103120 67
2006-06-02 09:45 51°25.525 3°13.785 -999 24 10.8 103120 67
2006-06-02 09:46 51°25.477 3°13.415 -999 20 10.8 103110 67
2006-06-02 09:47 51°25.456 3°13.022 -999 18 10.8 103120 67
2006-06-02 09:48 51°25.426 3°12.642 -999 22 10.8 103120 67
2006-06-02 09:49 51°25.406 3°12.246 -999 27 10.8 103120 67
2006-06-02 09:50 51°25.398 3°11.856 -999 25 10.8 103130 66
2006-06-02 09:51 51°25.451 3°11.48 -999 23 10.8 103130 66
2006-06-02 09:52 51°25.549 3°11.141 -999 19 10.8 103120 66
2006-06-02 09:53 51°25.679 3°10.852 -999 16 10.9 103130 67
2006-06-02 09:54 51°25.81 3°10.576 -999 17 10.9 103130 67
2006-06-02 09:55 51°25.931 3°10.292 -999 28 10.9 103130 67
2006-06-02 09:56 51°26.058 3°9.999 -999 24 10.9 103120 67
2006-06-02 09:57 51°26.114 3°9.662 -999 27 10.8 103120 67
2006-06-02 09:58 51°26.21 3°9.331 -999 22 10.8 103130 67
2006-06-02 09:59 51°26.299 3°9 -999 23 10.8 103130 66
2006-06-02 10:00 51°26.358 3°8.753 -999 31 10.8 103130 66
2006-06-02 10:01 51°26.391 3°8.61 -999 41 10.8 103140 66
2006-06-02 10:02 51°26.425 3°8.517 -999 56 10.7 103130 67
2006-06-02 10:03 51°26.438 3°8.476 -999 57 10.7 103140 68
2006-06-02 10:04 51°26.427 3°8.464 -999 54 10.7 103140 68
2006-06-02 10:05 51°26.417 3°8.45 -999 95 10.8 103140 68
2006-06-02 10:06 51°26.409 3°8.436 -999 99 10.9 103140 68
2006-06-02 10:07 51°26.4 3°8.419 -999 100 10.9 103140 67
2006-06-02 10:08 51°26.392 3°8.403 -999 95 11 103140 67
2006-06-02 10:09 51°26.402 3°8.357 -999 32 11 103140 66
2006-06-02 10:10 51°26.49 3°8.19 -999 16 11 103130 66
2006-06-02 10:11 51°26.618 3°7.932 -999 21 10.9 103130 66
2006-06-02 10:12 51°26.726 3°7.624 -999 18 10.9 103130 67
2006-06-02 10:13 51°26.843 3°7.329 -999 27 11 103130 67
2006-06-02 10:14 51°26.963 3°7.025 -999 11 11 103140 67
2006-06-02 10:15 51°27.078 3°6.733 -999 18 10.9 103130 67
2006-06-02 10:16 51°27.196 3°6.437 -999 11 11 103130 67
2006-06-02 10:17 51°27.308 3°6.147 -999 11 10.9 103130 67
2006-06-02 10:18 51°27.428 3°5.849 -999 21 11 103140 67
2006-06-02 10:19 51°27.541 3°5.558 -999 16 10.9 103150 66
2006-06-02 10:20 51°27.658 3°5.261 -999 20 10.9 103140 66
2006-06-02 10:21 51°27.772 3°4.965 -999 12 11 103140 67
2006-06-02 10:22 51°27.891 3°4.668 -999 9 10.9 103140 66
2006-06-02 10:23 51°28.008 3°4.376 -999 10 10.9 103140 66
2006-06-02 10:24 51°28.12 3°4.079 -999 10 11 103130 66
2006-06-02 10:25 51°28.214 3°3.838 -999 17 11 103140 66
2006-06-02 10:26 51°28.273 3°3.666 -999 30 11 103130 65
2006-06-02 10:27 51°28.294 3°3.564 -999 19 11 103140 65
2006-06-02 10:28 51°28.283 3°3.541 -999 160 11 103140 66
2006-06-02 10:29 51°28.268 3°3.532 -999 144 11 103140 66
2006-06-02 10:30 51°28.254 3°3.521 -999 159 11.1 103130 65
2006-06-02 10:31 51°28.241 3°3.509 -999 208 11.1 103130 65
2006-06-02 10:32 51°28.228 3°3.497 -999 225 11.2 103140 65
2006-06-02 10:33 51°28.215 3°3.484 -999 230 11.3 103130 65
2006-06-02 10:34 51°28.204 3°3.471 -999 241 11.4 103130 64
2006-06-02 10:35 51°28.19 3°3.395 -999 1 11.5 103130 64
2006-06-02 10:36 51°28.169 3°3.135 -999 8 11.5 103130 63
2006-06-02 10:37 51°28.143 3°2.791 -999 13 11.4 103130 64
2006-06-02 10:38 51°28.08 3°2.433 -999 9 11.2 103130 64
2006-06-02 10:39 51°28.019 3°2.067 -999 22 11.1 103120 65
2006-06-02 10:40 51°27.957 3°1.709 -999 11 11 103130 65
2006-06-02 10:41 51°27.894 3°1.343 -999 15 11 103130 65
2006-06-02 10:42 51°27.831 3°0.976 -999 13 10.9 103140 65
2006-06-02 10:43 51°27.763 3°0.614 -999 7 10.9 103130 66
2006-06-02 10:44 51°27.695 3°0.255 -999 12 10.9 103140 66
2006-06-02 10:45 51°27.63 2°59.897 -999 11 10.9 103130 66
2006-06-02 10:46 51°27.562 2°59.539 -999 14 10.9 103140 66
2006-06-02 10:47 51°27.498 2°59.176 -999 13 10.9 103140 66
2006-06-02 10:48 51°27.432 2°58.82 -999 20 10.9 103140 66
2006-06-02 10:49 51°27.365 2°58.465 -999 14 10.9 103140 66
2006-06-02 10:50 51°27.299 2°58.109 -999 17 10.9 103150 66
2006-06-02 10:51 51°27.232 2°57.761 -999 5 11 103140 66
2006-06-02 10:52 51°27.168 2°57.403 -999 11 10.9 103140 66
2006-06-02 10:53 51°27.1 2°57.048 -999 4 10.9 103140 66
2006-06-02 10:54 51°27.036 2°56.69 -999 15 10.9 103130 66
2006-06-02 10:55 51°26.972 2°56.327 -999 8 10.9 103140 66
2006-06-02 10:56 51°26.908 2°55.962 -999 13 10.9 103140 66
2006-06-02 10:57 51°26.844 2°55.604 -999 17 10.9 103140 66
2006-06-02 10:58 51°26.772 2°55.248 -999 12 10.9 103130 66
2006-06-02 10:59 51°26.667 2°54.91 -999 5 10.9 103130 66
2006-06-02 11:00 51°26.57 2°54.579 -999 4 10.9 103130 66
2006-06-02 11:01 51°26.47 2°54.226 -999 355 10.9 103130 66
2006-06-02 11:02 51°26.365 2°53.878 -999 3 10.9 103130 66
2006-06-02 11:03 51°26.289 2°53.523 -999 10 10.9 103120 66
2006-06-02 11:04 51°26.225 2°53.162 -999 16 10.9 103130 66
2006-06-02 11:05 51°26.163 2°52.799 -999 5 11 103140 66
2006-06-02 11:06 51°26.1 2°52.434 -999 5 11 103130 67
2006-06-02 11:07 51°26.036 2°52.068 -999 10 11 103130 66
2006-06-02 11:08 51°26.007 2°51.7 -999 9 11 103130 67
2006-06-02 11:09 51°25.982 2°51.318 -999 1 10.9 103130 66
2006-06-02 11:10 51°25.955 2°50.939 -999 2 11 103130 67
2006-06-02 11:11 51°25.928 2°50.566 -999 11 10.9 103130 66
2006-06-02 11:12 51°25.902 2°50.179 -999 4 10.9 103120 67
2006-06-02 11:13 51°25.875 2°49.806 -999 5 10.9 103130 67
2006-06-02 11:14 51°25.853 2°49.421 -999 3 11 103120 67
2006-06-02 11:15 51°25.883 2°49.05 -999 2 10.9 103120 67
2006-06-02 11:16 51°25.926 2°48.799 -999 9 10.9 103120 66
2006-06-02 11:17 51°25.954 2°48.634 -999 1 11 103130 66
2006-06-02 11:18 51°25.974 2°48.544 -999 355 11.1 103140 67
2006-06-02 11:19 51°25.963 2°48.513 -999 357 11.2 103130 67
2006-06-02 11:20 51°25.943 2°48.503 -999 321 11.3 103130 66
2006-06-02 11:21 51°25.923 2°48.489 -999 336 11.5 103140 66
2006-06-02 11:22 51°25.904 2°48.47 -999 342 11.6 103120 65
2006-06-02 11:23 51°25.884 2°48.451 -999 341 11.7 103130 65
2006-06-02 11:24 51°25.866 2°48.429 -999 27 11.8 103140 64
2006-06-02 11:25 51°25.849 2°48.408 -999 54 11.9 103140 64
2006-06-02 11:26 51°25.836 2°48.349 -999 11 12 103140 64
2006-06-02 11:27 51°25.799 2°48.17 -999 13 11.9 103140 62
2006-06-02 11:28 51°25.684 2°47.922 -999 5 11.7 103130 63
2006-06-02 11:29 51°25.548 2°47.624 -999 13 11.4 103130 64
2006-06-02 11:30 51°25.446 2°47.274 -999 5 11.3 103130 65
2006-06-02 11:31 51°25.351 2°46.928 -999 8 11.2 103140 65
2006-06-02 11:32 51°25.255 2°46.58 -999 7 11.2 103130 66
2006-06-02 11:33 51°25.157 2°46.233 -999 7 11.1 103130 66
2006-06-02 11:34 51°25.06 2°45.884 -999 359 11.1 103130 66
2006-06-02 11:35 51°24.964 2°45.54 -999 6 11.1 103120 66
2006-06-02 11:36 51°24.866 2°45.182 -999 5 11.1 103140 66
2006-06-02 11:37 51°24.771 2°44.843 -999 4 11.1 103130 66
2006-06-02 11:38 51°24.667 2°44.479 -999 20 11.1 103130 66
2006-06-02 11:39 51°24.571 2°44.137 -999 13 11.1 103130 66
2006-06-02 11:40 51°24.473 2°43.77 -999 3 11.1 103140 66
2006-06-02 11:41 51°24.376 2°43.415 -999 3 11.1 103130 66
2006-06-02 11:42 51°24.277 2°43.063 -999 358 11.1 103140 66
2006-06-02 11:43 51°24.181 2°42.713 -999 13 11.1 103130 66
2006-06-02 11:44 51°24.081 2°42.354 -999 3 11 103140 66
2006-06-02 11:45 51°23.982 2°42.002 -999 4 11.1 103140 66
2006-06-02 11:46 51°23.884 2°41.65 -999 5 11.1 103140 66
2006-06-02 11:47 51°23.788 2°41.304 -999 5 11.2 103140 66
2006-06-02 11:48 51°23.691 2°40.944 -999 7 11.1 103140 65
2006-06-02 11:49 51°23.593 2°40.593 -999 13 11.1 103140 65
2006-06-02 11:50 51°23.482 2°40.251 -999 6 11.1 103140 65
2006-06-02 11:51 51°23.374 2°39.906 -999 6 11.1 103140 66
2006-06-02 11:52 51°23.258 2°39.566 -999 2 11.1 103140 66
2006-06-02 11:53 51°23.136 2°39.231 -999 11 11.1 103140 66
2006-06-02 11:54 51°23.018 2°38.9 -999 7 11.1 103140 65
2006-06-02 11:55 51°22.896 2°38.558 -999 8 11.1 103140 65
2006-06-02 11:56 51°22.778 2°38.229 -999 11 11.1 103140 66
2006-06-02 11:57 51°22.656 2°37.889 -999 1 11.1 103140 65
2006-06-02 11:58 51°22.54 2°37.553 -999 10 11.1 103140 66
2006-06-02 11:59 51°22.426 2°37.223 -999 358 11.1 103140 65
2006-06-02 12:00 51°22.308 2°36.882 -999 9 11.2 103140 66
2006-06-02 12:01 51°22.194 2°36.544 -999 3 11.1 103150 66
2006-06-02 12:02 51°22.079 2°36.214 -999 12 11.1 103140 65
2006-06-02 12:03 51°21.944 2°35.886 -999 11 11.1 103140 66
2006-06-02 12:04 51°21.816 2°35.558 -999 -999 11.1 103150 66
2006-06-02 12:05 51°21.69 2°35.23 -999 12 11.1 103140 66
2006-06-02 12:06 51°21.575 2°34.899 -999 12 11.1 103140 66
2006-06-02 12:07 51°21.458 2°34.555 -999 10 11.1 103140 66
2006-06-02 12:08 51°21.344 2°34.213 -999 12 11.1 103140 66
2006-06-02 12:09 51°21.228 2°33.878 -999 12 11.1 103140 66
2006-06-02 12:10 51°21.108 2°33.535 -999 17 11.1 103140 66
2006-06-02 12:11 51°20.995 2°33.203 -999 12 11.1 103130 66
2006-06-02 12:12 51°20.882 2°32.854 -999 13 11.1 103130 66
2006-06-02 12:13 51°20.765 2°32.516 -999 16 11.2 103130 66
2006-06-02 12:14 51°20.651 2°32.181 -999 17 11.2 103140 66
2006-06-02 12:15 51°20.533 2°31.837 -999 17 11.2 103130 66
2006-06-02 12:16 51°20.421 2°31.502 -999 11 11.2 103140 66
2006-06-02 12:17 51°20.307 2°31.154 -999 12 11.3 103140 66
2006-06-02 12:18 51°20.197 2°30.809 -999 17 11.3 103140 66
2006-06-02 12:19 51°20.095 2°30.495 -999 20 11.3 103150 66
2006-06-02 12:20 51°20.058 2°30.217 -999 15 11.3 103140 66
2006-06-02 12:21 51°20.018 2°30.03 -999 24 11.3 103150 66
2006-06-02 12:22 51°19.987 2°29.973 -999 152 11.3 103160 65
2006-06-02 12:23 51°19.978 2°29.93 -999 130 11.3 103150 65
2006-06-02 12:24 51°19.963 2°29.9 -999 126 11.4 103150 65
2006-06-02 12:25 51°19.95 2°29.87 -999 143 11.6 103150 66
2006-06-02 12:26 51°19.939 2°29.843 -999 143 11.7 103150 65
2006-06-02 12:27 51°19.928 2°29.82 -999 178 12 103150 65
2006-06-02 12:28 51°19.917 2°29.792 -999 225 12.2 103150 64
2006-06-02 12:29 51°19.908 2°29.763 -999 269 12.5 103150 63
2006-06-02 12:30 51°19.899 2°29.753 -999 326 12.7 103150 62
2006-06-02 12:31 51°19.866 2°29.856 -999 2 12.8 103150 60
2006-06-02 12:32 51°19.771 2°30.055 -999 8 12.5 103140 60
2006-06-02 12:33 51°19.654 2°30.303 -999 360 12.2 103140 61
2006-06-02 12:34 51°19.526 2°30.555 -999 2 12 103140 65
2006-06-02 12:35 51°19.399 2°30.806 -999 8 11.9 103140 66
2006-06-02 12:36 51°19.27 2°31.067 -999 2 11.8 103130 64
2006-06-02 12:37 51°19.141 2°31.321 -999 3 11.7 103130 64
2006-06-02 12:38 51°19.011 2°31.575 -999 7 11.7 103130 64
2006-06-02 12:39 51°18.882 2°31.83 -999 6 11.7 103130 64
2006-06-02 12:40 51°18.754 2°32.086 -999 5 11.6 103130 64
2006-06-02 12:41 51°18.628 2°32.342 -999 2 11.5 103130 64
2006-06-02 12:42 51°18.496 2°32.606 -999 359 11.6 103130 65
2006-06-02 12:43 51°18.366 2°32.87 -999 1 11.6 103120 65
2006-06-02 12:44 51°18.236 2°33.135 -999 2 11.5 103120 64
2006-06-02 12:45 51°18.106 2°33.396 -999 3 11.5 103140 65
2006-06-02 12:46 51°17.978 2°33.658 -999 -999 11.5 103140 65
2006-06-02 12:47 51°17.848 2°33.917 -999 359 11.5 103130 65
2006-06-02 12:48 51°17.722 2°34.18 -999 353 11.5 103130 65
2006-06-02 12:49 51°17.598 2°34.442 -999 351 11.5 103140 65
2006-06-02 12:50 51°17.473 2°34.708 -999 354 11.6 103130 65
2006-06-02 12:51 51°17.351 2°34.969 -999 355 11.7 103140 65
2006-06-02 12:52 51°17.224 2°35.23 -999 3 11.7 103140 64
2006-06-02 12:53 51°17.106 2°35.497 -999 353 11.7 103130 64
2006-06-02 12:54 51°16.993 2°35.783 -999 357 11.7 103130 65
2006-06-02 12:55 51°16.88 2°36.06 -999 348 11.6 103130 65
2006-06-02 12:56 51°16.779 2°36.305 -999 348 11.7 103130 65
2006-06-02 12:57 51°16.715 2°36.429 -999 318 11.8 103130 64
2006-06-02 12:58 51°16.678 2°36.49 -999 290 11.8 103140 64
2006-06-02 12:59 51°16.662 2°36.474 -999 284 11.9 103140 64
2006-06-02 13:00 51°16.646 2°36.447 -999 280 12 103140 64
2006-06-02 13:01 51°16.63 2°36.418 -999 285 12.2 103130 64
2006-06-02 13:02 51°16.614 2°36.388 -999 293 12.3 103130 64
2006-06-02 13:03 51°16.598 2°36.358 -999 291 12.5 103130 63
2006-06-02 13:04 51°16.581 2°36.327 -999 288 12.6 103130 62
2006-06-02 13:05 51°16.567 2°36.317 -999 323 12.8 103130 62
2006-06-02 13:06 51°16.554 2°36.453 -999 343 12.7 103130 60
2006-06-02 13:07 51°16.459 2°36.676 -999 351 12.5 103120 60
2006-06-02 13:08 51°16.282 2°36.86 -999 355 12.4 103120 61
2006-06-02 13:09 51°16.108 2°37.056 -999 348 12.2 103120 62
2006-06-02 13:10 51°15.938 2°37.259 -999 353 12.2 103130 63
2006-06-02 13:11 51°15.762 2°37.448 -999 358 12.1 103120 63
2006-06-02 13:12 51°15.585 2°37.635 -999 3 12.1 103130 62
2006-06-02 13:13 51°15.41 2°37.827 -999 -999 12.1 103130 64
2006-06-02 13:14 51°15.232 2°38.014 -999 359 12 103120 63
2006-06-02 13:15 51°15.057 2°38.211 -999 349 11.9 103120 62
2006-06-02 13:16 51°14.883 2°38.405 -999 352 11.8 103120 62
2006-06-02 13:17 51°14.694 2°38.585 -999 355 11.9 103120 62
2006-06-02 13:18 51°14.482 2°38.695 -999 360 11.8 103120 62
2006-06-02 13:19 51°14.273 2°38.81 -999 1 11.8 103120 62
2006-06-02 13:20 51°14.057 2°38.883 -999 358 11.8 103110 63
2006-06-02 13:21 51°13.836 2°38.891 -999 10 11.9 103120 62
2006-06-02 13:22 51°13.622 2°38.774 -999 16 11.8 103110 62
2006-06-02 13:23 51°13.427 2°38.604 -999 14 11.8 103110 62
2006-06-02 13:24 51°13.217 2°38.435 -999 13 11.8 103110 62
2006-06-02 13:25 51°13.01 2°38.277 -999 15 11.9 103110 63
2006-06-02 13:26 51°12.802 2°38.12 -999 16 11.9 103110 63
2006-06-02 13:27 51°12.596 2°37.964 -999 21 11.9 103110 63
2006-06-02 13:28 51°12.389 2°37.811 -999 15 12 103120 63
2006-06-02 13:29 51°12.179 2°37.663 -999 17 11.9 103120 62
2006-06-02 13:30 51°11.971 2°37.527 -999 19 11.9 103110 62
2006-06-02 13:31 51°11.756 2°37.386 -999 4 12 103120 62
2006-06-02 13:32 51°11.545 2°37.24 -999 6 12 103120 63
2006-06-02 13:33 51°11.346 2°37.053 -999 21 11.9 103120 63
2006-06-02 13:34 51°11.156 2°36.845 -999 15 12 103110 64
2006-06-02 13:35 51°10.968 2°36.635 -999 13 12 103110 63
2006-06-02 13:36 51°10.778 2°36.437 -999 23 12 103120 62
2006-06-02 13:37 51°10.594 2°36.24 -999 17 12 103120 63
2006-06-02 13:38 51°10.397 2°36.051 -999 10 12 103120 63
2006-06-02 13:39 51°10.189 2°35.921 -999 9 11.9 103110 63
2006-06-02 13:40 51°9.973 2°35.952 -999 354 12 103110 63
2006-06-02 13:41 51°9.791 2°36.108 -999 350 12 103110 64
2006-06-02 13:42 51°9.701 2°36.39 -999 348 12 103110 64
2006-06-02 13:43 51°9.708 2°36.7 -999 349 12 103100 63
2006-06-02 13:44 51°9.768 2°37.01 -999 344 12.1 103100 63
2006-06-02 13:45 51°9.849 2°37.3 -999 347 12.1 103100 64
2006-06-02 13:46 51°9.943 2°37.584 -999 351 12.1 103090 63
2006-06-02 13:47 51°10.034 2°37.869 -999 351 12.1 103090 63
2006-06-02 13:48 51°10.124 2°38.155 -999 348 12.1 103100 63
2006-06-02 13:49 51°10.214 2°38.441 -999 347 12 103100 62
2006-06-02 13:50 51°10.301 2°38.732 -999 345 12 103110 63
2006-06-02 13:51 51°10.384 2°39.024 -999 347 12.1 103110 63
2006-06-02 13:52 51°10.465 2°39.317 -999 347 12 103100 63
2006-06-02 13:53 51°10.549 2°39.609 -999 341 12.1 103100 64
2006-06-02 13:54 51°10.622 2°39.908 -999 338 12.1 103100 64
2006-06-02 13:55 51°10.687 2°40.213 -999 342 12 103100 64
2006-06-02 13:56 51°10.751 2°40.518 -999 338 12 103110 64
2006-06-02 13:57 51°10.811 2°40.809 -999 339 12.1 103100 65
2006-06-02 13:58 51°10.859 2°41.054 -999 336 12 103110 64
2006-06-02 13:59 51°10.909 2°41.286 -999 341 12 103110 64
2006-06-02 14:00 51°10.952 2°41.512 -999 336 12 103110 64
2006-06-02 14:01 51°10.987 2°41.68 -999 325 12 103110 65
2006-06-02 14:02 51°11.014 2°41.792 -999 319 12 103110 64
2006-06-02 14:03 51°11.044 2°41.908 -999 321 12 103110 63
2006-06-02 14:04 51°11.079 2°42.047 -999 318 12 103110 64
2006-06-02 14:05 51°11.081 2°42.063 -999 275 11.9 103110 63
2006-06-02 14:06 51°11.079 2°42.068 -999 260 12.1 103110 63
2006-06-02 14:07 51°11.075 2°42.076 -999 257 12.2 103110 64
2006-06-02 14:08 51°11.068 2°42.083 -999 249 12.2 103110 63
2006-06-02 14:09 51°11.061 2°42.093 -999 254 12.2 103110 63
2006-06-02 14:10 51°11.052 2°42.103 -999 262 12.3 103120 64
2006-06-02 14:11 51°11.043 2°42.118 -999 280 12.3 103110 64
2006-06-02 14:12 51°11.025 2°42.213 -999 316 12.3 103110 64
2006-06-02 14:13 51°11.011 2°42.429 -999 336 12.3 103110 62
2006-06-02 14:14 51°11.014 2°42.725 -999 346 12.2 103100 63
2006-06-02 14:15 51°11.061 2°43.047 -999 345 12.1 103090 63
2006-06-02 14:16 51°11.114 2°43.371 -999 346 12.2 103100 64
2006-06-02 14:17 51°11.175 2°43.692 -999 342 12.1 103100 63
2006-06-02 14:18 51°11.239 2°44.013 -999 349 12.1 103100 64
2006-06-02 14:19 51°11.309 2°44.331 -999 347 12.1 103100 64
2006-06-02 14:20 51°11.38 2°44.648 -999 342 12.1 103100 64
2006-06-02 14:21 51°11.45 2°44.965 -999 344 12.1 103100 64
2006-06-02 14:22 51°11.52 2°45.284 -999 340 12.1 103100 64
2006-06-02 14:23 51°11.588 2°45.605 -999 346 12.1 103090 64
2006-06-02 14:24 51°11.657 2°45.925 -999 347 12.1 103100 64
2006-06-02 14:25 51°11.728 2°46.245 -999 345 12.1 103100 65
2006-06-02 14:26 51°11.787 2°46.571 -999 342 12.2 103100 65
2006-06-02 14:27 51°11.849 2°46.895 -999 346 12.2 103100 64
2006-06-02 14:28 51°11.909 2°47.221 -999 347 12.2 103100 64
2006-06-02 14:29 51°11.968 2°47.547 -999 338 12.1 103100 64
2006-06-02 14:30 51°12.024 2°47.877 -999 345 12.1 103090 65
2006-06-02 14:31 51°12.106 2°48.189 -999 344 12.2 103080 64
2006-06-02 14:32 51°12.202 2°48.496 -999 346 12.2 103090 64
2006-06-02 14:33 51°12.31 2°48.791 -999 349 12.2 103090 64
2006-06-02 14:34 51°12.42 2°49.085 -999 352 12.2 103090 64
2006-06-02 14:35 51°12.535 2°49.365 -999 350 12.2 103080 64
2006-06-02 14:36 51°12.652 2°49.658 -999 350 12.3 103080 64
2006-06-02 14:37 51°12.768 2°49.945 -999 353 12.2 103090 64
2006-06-02 14:38 51°12.886 2°50.231 -999 347 12.2 103080 64
2006-06-02 14:39 51°13.004 2°50.518 -999 345 12.2 103090 64
2006-06-02 14:40 51°13.119 2°50.804 -999 347 12.2 103090 64
2006-06-02 14:41 51°13.236 2°51.1 -999 352 12.2 103090 64
2006-06-02 14:42 51°13.348 2°51.397 -999 348 12.2 103080 63
2006-06-02 14:43 51°13.463 2°51.685 -999 347 12.2 103090 63
2006-06-02 14:44 51°13.584 2°51.984 -999 349 12.2 103080 63
2006-06-02 14:45 51°13.699 2°52.27 -999 348 12.2 103080 64
2006-06-02 14:46 51°13.826 2°52.572 -999 348 12.2 103070 63
2006-06-02 14:47 51°13.95 2°52.864 -999 342 12.1 103080 63
2006-06-02 14:48 51°14.064 2°53.169 -999 347 12.2 103070 63
2006-06-02 14:49 51°14.179 2°53.472 -999 341 12.1 103080 63
2006-06-02 14:50 51°14.277 2°53.786 -999 341 12.1 103080 63
2006-06-02 14:51 51°14.359 2°54.124 -999 336 12.1 103080 63
2006-06-02 14:52 51°14.402 2°54.466 -999 324 12.1 103080 63
2006-06-02 14:53 51°14.404 2°54.788 -999 321 12 103090 63
2006-06-02 14:54 51°14.352 2°55.053 -999 312 12 103090 62
2006-06-02 14:55 51°14.279 2°55.224 -999 305 12.1 103090 64
2006-06-02 14:56 51°14.206 2°55.346 -999 296 12.2 103090 64
2006-06-02 14:57 51°14.126 2°55.427 -999 255 12.2 103100 64
2006-06-02 14:58 51°14.043 2°55.489 -999 232 12.3 103090 63
2006-06-02 14:59 51°13.966 2°55.547 -999 255 12.3 103090 63
2006-06-02 15:00 51°13.883 2°55.6 -999 252 12.4 103090 63
2006-06-02 15:01 51°13.796 2°55.656 -999 241 12.5 103090 62
2006-06-02 15:02 51°13.725 2°55.744 -999 278 12.5 103090 63
2006-06-02 15:03 51°13.671 2°55.862 -999 305 12.6 103090 62
2006-06-02 15:04 51°13.634 2°55.979 -999 343 12.7 103090 62
2006-06-02 15:05 51°13.615 2°56.058 -999 264 12.8 103090 61
2006-06-02 15:06 51°13.604 2°56.09 -999 236 12.8 103090 60
2006-06-02 15:07 51°13.6 2°56.098 -999 284 12.8 103090 61